Wind_Speed
25 26 27 28 28 29 29 29 29 30 30 31 31 31 31 32 31 30 30 31 31 30 30 31 29 28 28 29 29 29 25 23 25 28 26 33 31 30 29 31 30 31 30 31 31
29 30 31 31 31 32 32 31 31 31 32 32 33 34 33 34 33 33 33 32 33 34 34 33 33 31 31 32 32 30 28 26 31 31 30 32 32 32 29 28 29 33 35 33 34
32 33 33 33 33 33 34 34 35 34 34 35 36 36 36 37 37 38 37 36 37 36 36 35 34 34 33 33 34 34 30 32 32 34 36 33 32 34 33 28 31 34 37 35 36
34 34 34 34 36 37 38 39 39 39 40 40 41 42 42 42 42 40 40 40 40 40 40 40 40 40 38 37 37 37 34 34 34 37 40 39 36 33 33 29 34 33 36 37 37
38 39 40 41 41 41 40 41 42 43 43 44 44 44 44 44 44 45 44 44 43 44 45 45 44 45 44 43 44 42 39 38 37 38 41 43 42 34 32 32 36 35 36 36 38
37 38 40 39 40 41 41 43 44 45 45 46 47 47 46 47 47 48 48 48 48 48 49 49 48 48 48 48 49 46 46 44 42 40 41 45 45 43 32 33 38 38 36 37 36
42 43 42 42 43 44 46 47 47 47 48 49 50 50 51 51 52 51 52 52 51 51 51 51 50 51 51 53 53 52 51 50 48 46 43 46 47 44 37 37 40 40 37 37 35
44 43 42 43 44 45 46 46 46 47 47 48 50 51 52 52 54 54 54 54 55 54 53 53 52 53 53 54 56 56 58 56 52 53 52 50 50 45 42 43 42 41 40 40 39
44 43 43 43 42 42 43 44 44 44 45 47 48 51 52 53 54 55 55 55 56 57 55 54 53 53 55 56 57 57 59 60 61 56 56 54 59 50 49 50 47 45 42 42 42
43 43 43 42 40 41 43 43 44 44 44 46 47 49 50 52 54 55 54 52 50 50 51 51 52 51 53 55 58 59 60 62 63 60 59 57 63 56 52 49 51 50 46 45 43
43 43 43 40 41 41 42 43 44 44 45 46 47 48 47 46 47 47 48 48 45 43 42 45 47 49 50 52 57 61 63 64 65 66 66 63 67 64 57 55 52 50 52 47 44
41 40 42 42 42 41 42 42 42 42 42 41 40 38 35 33 35 38 38 39 39 38 37 38 42 45 48 51 53 57 63 64 66 68 70 70 70 70 62 58 55 53 52 51 48
40 41 42 42 42 42 43 43 43 41 40 39 37 36 35 32 32 32 32 32 34 35 37 41 43 45 48 50 52 54 60 62 67 70 72 73 77 74 67 64 61 56 53 52 53
40 42 42 44 43 44 44 44 44 42 41 40 39 35 32 30 32 29 29 30 34 36 38 43 44 45 47 51 52 51 60 63 66 69 75 72 78 76 73 70 65 58 58 55 53
43 45 47 47 48 47 47 45 43 41 40 41 36 31 31 32 32 29 29 29 32 35 38 43 43 44 47 53 54 54 62 64 65 69 75 71 79 73 77 72 66 67 62 59 56
51 51 51 51 50 46 45 43 41 38 38 36 35 32 32 30 28 27 29 31 35 37 42 42 45 51 54 59 60 62 70 68 68 72 77 73 77 87 76 72 70 67 68 63 59
53 51 50 46 44 42 40 38 36 35 34 33 30 30 30 28 27 27 29 34 38 41 42 42 45 51 56 60 61 62 67 68 70 72 78 75 80 86 74 73 74 70 69 66 63
47 44 41 39 36 35 33 32 30 30 30 29 29 28 27 26 26 27 31 36 40 43 43 44 46 49 53 56 59 49 49 51 59 64 67 59 74 76 77 75 76 74 72 71 65
39 38 35 33 31 30 29 27 26 25 24 24 25 24 25 25 27 28 32 36 40 43 43 45 47 47 49 42 45 35 32 30 35 35 37 43 65 76 74 74 72 71 69 72 71
36 32 31 29 27 26 26 24 22 21 21 21 20 21 23 24 25 27 32 36 39 41 45 49 50 47 34 27 24 25 20 20 27 31 38 32 36 51 58 65 67 71 70 67 60
31 29 27 26 24 22 23 20 19 18 17 18 19 20 22 22 24 27 32 36 37 41 46 51 53 51 31 18 23 19 13 16 18 30 38 38 35 19 25 26 38 55 67 66 65
29 29 26 25 23 20 18 17 18 20 20 18 19 20 21 23 25 29 32 36 38 43 45 45 49 48 28 20 17 16 16 24 24 24 34 44 39 7 16 24 27 38 63 61 64
29 29 27 23 20 18 18 17 16 18 20 19 20 22 23 25 30 32 32 34 39 41 43 44 43 46 33 21 22 25 17 22 31 28 27 38 37 11 29 31 32 38 42 65 63
29 29 28 26 22 19 16 16 18 19 19 21 21 24 26 27 32 36 36 35 41 38 37 41 40 36 33 20 24 26 23 21 24 32 29 30 38 19 30 34 44 34 38 45 59
30 28 29 28 27 26 24 22 21 19 22 26 24 28 30 31 33 35 36 38 40 35 34 37 41 35 33 28 26 21 16 15 11 22 23 33 25 31 34 39 36 36 45 44 49
31 29 27 28 28 28 27 27 26 25 26 25 30 31 33 36 40 39 38 39 40 40 29 33 37 36 38 31 33 26 19 18 17 20 14 25 28 33 35 42 30 25 41 48 49
30 29 28 28 28 28 28 28 28 27 24 31 33 35 34 39 41 41 41 41 40 43 42 35 33 36 41 26 31 33 29 27 20 17 12 22 32 17 30 39 34 31 27 47 48
Wind_Direction
282 281 279 278 277 277 278 277 277 277 276 275 274 273 273 273 272 272 271 272 274 273 274 275 271 269 266 264 260 260 257 256 260 259 247 257 259 258 258 252 244 245 242 242 240
284 282 280 279 279 278 276 276 276 276 276 276 274 272 271 270 270 269 269 270 271 271 270 269 270 269 268 267 266 262 258 253 258 259 257 254 259 262 255 254 253 243 241 235 241
286 286 285 285 285 284 284 283 281 279 280 279 278 277 276 273 271 272 271 269 269 269 269 270 270 269 268 267 267 264 262 255 254 255 256 256 253 256 258 252 248 242 243 237 234
287 287 287 288 287 286 286 285 283 281 281 282 282 280 277 274 275 275 274 274 273 272 271 270 269 267 266 266 266 264 262 257 252 251 251 253 253 251 255 254 256 250 245 242 233
287 288 287 287 286 285 284 284 283 280 279 279 279 278 277 277 276 274 273 273 273 273 272 271 270 268 265 264 263 262 261 260 258 254 251 254 254 256 253 252 251 251 248 244 239
287 286 284 284 283 283 284 286 286 284 282 281 280 279 278 276 275 275 275 274 274 274 271 268 267 266 266 265 262 260 260 260 259 254 252 252 253 251 248 251 251 247 247 248 240
286 286 285 285 285 285 284 284 283 282 281 281 281 280 279 279 276 275 275 275 274 272 271 269 267 264 263 262 262 260 259 259 259 254 250 251 248 249 249 240 249 254 247 248 244
288 287 286 285 285 285 284 284 284 284 282 281 281 281 281 279 278 277 276 275 274 273 271 269 267 265 261 258 258 257 259 256 254 255 249 246 245 244 247 242 240 244 248 243 244
292 291 290 289 289 289 288 287 285 285 284 284 283 282 281 280 279 276 274 273 272 270 269 268 266 265 264 262 259 256 255 255 256 253 251 249 250 238 238 242 239 239 241 244 243
295 295 293 292 292 293 293 291 289 288 288 288 288 288 286 282 278 276 274 271 270 270 269 268 266 265 263 261 260 257 255 253 254 252 253 250 252 245 241 243 246 241 237 240 242
297 296 294 293 294 293 292 292 291 291 294 296 296 295 294 292 287 283 279 276 271 267 264 264 265 265 264 262 260 259 258 254 255 256 253 249 248 248 242 241 241 240 244 242 240
297 297 297 297 295 295 295 294 293 293 292 291 292 292 295 296 291 286 278 272 266 263 264 266 269 270 270 268 265 262 259 258 255 256 257 252 245 250 244 239 241 243 241 239 242
302 302 301 300 299 299 297 296 294 291 289 287 285 288 290 288 286 282 276 268 263 265 269 271 273 274 273 271 270 271 270 264 260 256 257 256 247 247 247 242 239 240 243 241 239
305 303 300 297 297 296 295 294 292 291 289 287 285 286 285 282 277 276 270 264 266 271 274 279 280 280 278 276 273 268 265 265 265 262 261 258 255 245 247 246 243 238 238 238 236
297 298 297 295 295 294 294 291 291 289 287 287 286 284 281 278 279 271 270 272 281 285 290 290 289 289 288 284 279 275 272 267 262 260 262 259 260 246 245 243 243 240 237 234 234
297 296 297 296 293 293 292 290 289 287 287 285 283 280 278 276 272 271 276 282 287 291 298 296 295 296 293 290 286 281 279 274 269 264 257 257 258 250 245 243 240 240 235 232 229
298 298 299 299 298 296 294 293 291 287 286 286 280 275 275 277 277 279 282 287 290 295 295 298 300 301 298 295 294 291 284 279 270 264 261 257 254 253 247 246 243 238 236 233 229
308 307 304 302 299 297 295 292 288 286 285 283 278 276 278 279 283 286 289 294 301 304 306 308 307 312 309 303 297 295 284 280 277 268 266 261 255 248 247 242 241 240 237 234 228
314 311 310 309 307 304 302 297 290 287 283 280 280 280 282 285 286 291 297 302 308 311 315 315 318 321 312 306 300 295 283 274 279 282 284 276 256 245 245 242 238 238 237 235 229
319 318 317 316 314 314 310 302 296 290 286 282 280 281 282 284 293 301 306 311 316 322 324 324 327 324 314 294 282 291 290 288 263 284 289 288 271 253 239 239 239 235 231 229 232
328 329 326 323 323 320 317 310 305 300 294 291 291 290 291 294 303 309 314 318 326 328 327 327 329 329 317 266 269 252 261 277 288 272 279 282 273 271 248 235 238 233 231 225 222
340 336 336 332 331 327 324 314 307 306 305 301 295 293 297 305 308 314 324 324 330 330 327 325 324 322 319 234 264 246 270 259 286 285 259 275 265 292 193 193 225 223 230 221 216
354 354 347 342 336 330 322 316 311 304 301 301 304 302 307 312 309 315 323 327 329 327 324 325 318 317 320 257 251 248 265 275 281 304 302 280 267 253 249 198 208 211 214 227 218
354 358 353 350 344 334 328 319 312 309 311 308 310 310 310 314 313 314 324 327 322 321 319 317 310 305 305 301 261 246 243 265 290 283 304 276 281 217 250 220 206 211 200 213 221
356 359 354 356 346 336 332 328 322 317 317 312 315 310 310 311 306 315 321 322 321 316 314 306 305 295 292 283 270 267 269 273 282 301 293 274 263 265 249 230 209 198 208 202 208
354 359 359 354 347 342 336 329 324 325 321 312 312 314 313 309 309 315 317 317 319 313 306 294 299 289 285 289 270 260 272 281 286 290 275 268 275 294 265 246 244 239 192 202 199
345 351 357 352 346 346 345 340 336 326 320 316 314 310 312 308 312 313 313 315 315 314 310 299 294 287 290 288 272 252 266 267 275 287 279 272 276 290 266 246 249 247 207 204 211
Height
5776 5775 5773 5772 5771 5770 5769 5768 5767 5765 5765 5764 5764 5764 5763 5763 5762 5762 5762 5761 5761 5761 5762 5761 5762 5762 5762 5761 5762 5763 5766 5769 5768 5767 5768 5763 5767 5769 5771 5773 5775 5777 5781 5784 5785
5769 5768 5767 5765 5764 5763 5762 5761 5760 5758 5757 5757 5756 5756 5755 5755 5756 5754 5755 5755 5754 5754 5754 5754 5754 5754 5755 5755 5755 5756 5758 5762 5760 5760 5761 5760 5761 5762 5766 5767 5770 5770 5772 5776 5778
5762 5760 5759 5757 5756 5756 5755 5753 5752 5751 5750 5748 5747 5747 5746 5746 5747 5746 5746 5746 5746 5746 5746 5745 5746 5747 5747 5747 5747 5748 5751 5751 5753 5752 5752 5754 5755 5755 5758 5762 5761 5763 5766 5768 5771
5755 5753 5752 5750 5749 5747 5746 5744 5743 5743 5742 5740 5738 5737 5737 5737 5739 5738 5737 5737 5737 5738 5737 5736 5737 5737 5738 5737 5737 5738 5741 5741 5743 5743 5743 5745 5746 5749 5750 5756 5753 5757 5759 5762 5765
5748 5745 5744 5742 5739 5738 5737 5734 5733 5733 5732 5730 5729 5728 5728 5728 5729 5727 5727 5728 5727 5726 5726 5724 5725 5726 5726 5727 5726 5727 5730 5731 5734 5735 5735 5735 5740 5743 5746 5748 5746 5749 5751 5755 5758
5739 5736 5735 5733 5730 5728 5727 5724 5723 5723 5721 5719 5717 5717 5717 5718 5717 5716 5716 5716 5716 5714 5713 5712 5713 5713 5716 5715 5715 5719 5719 5722 5723 5725 5726 5725 5730 5732 5742 5739 5737 5740 5744 5746 5751
5729 5727 5725 5723 5721 5718 5716 5713 5712 5711 5710 5708 5706 5705 5704 5705 5705 5705 5703 5703 5703 5701 5698 5699 5700 5700 5703 5702 5703 5706 5709 5710 5711 5712 5715 5713 5719 5724 5730 5728 5729 5731 5737 5739 5743
5720 5717 5715 5712 5710 5707 5705 5702 5700 5699 5698 5696 5694 5692 5692 5692 5691 5693 5691 5690 5688 5686 5684 5686 5686 5685 5687 5688 5689 5692 5694 5697 5697 5696 5699 5702 5708 5712 5713 5717 5720 5722 5727 5730 5734
5709 5706 5703 5701 5700 5696 5693 5690 5688 5687 5686 5684 5683 5680 5679 5679 5679 5678 5678 5676 5674 5671 5672 5673 5672 5671 5672 5674 5675 5676 5678 5679 5681 5683 5683 5690 5688 5700 5700 5702 5708 5712 5717 5721 5726
5698 5694 5692 5689 5689 5685 5680 5678 5675 5675 5673 5670 5670 5668 5666 5664 5663 5662 5662 5662 5660 5657 5658 5658 5656 5656 5656 5657 5658 5660 5661 5662 5663 5667 5669 5678 5675 5685 5692 5695 5700 5703 5706 5711 5716
5686 5683 5680 5678 5677 5675 5670 5666 5664 5663 5659 5657 5655 5652 5649 5647 5646 5647 5646 5647 5645 5645 5646 5644 5643 5643 5642 5642 5641 5642 5644 5645 5647 5646 5650 5657 5659 5665 5676 5684 5689 5693 5699 5704 5707
5675 5672 5669 5667 5665 5663 5660 5655 5651 5649 5647 5646 5644 5641 5638 5637 5636 5636 5636 5636 5635 5634 5636 5635 5632 5631 5630 5627 5628 5628 5626 5629 5631 5630 5628 5634 5644 5644 5662 5671 5678 5683 5688 5695 5698
5666 5662 5659 5655 5652 5650 5647 5643 5639 5636 5636 5636 5634 5631 5629 5628 5626 5625 5626 5625 5625 5625 5625 5624 5623 5622 5618 5615 5616 5616 5610 5610 5611 5613 5612 5612 5624 5633 5648 5653 5663 5672 5680 5684 5689
5655 5652 5650 5644 5642 5637 5634 5631 5627 5624 5624 5624 5623 5620 5617 5616 5615 5616 5615 5616 5616 5616 5615 5611 5611 5609 5604 5600 5601 5605 5591 5594 5595 5596 5590 5599 5601 5618 5630 5640 5649 5662 5665 5670 5676
5645 5640 5637 5632 5628 5624 5621 5618 5616 5613 5611 5613 5611 5608 5606 5606 5606 5606 5605 5606 5605 5604 5604 5600 5597 5593 5588 5581 5583 5584 5573 5577 5579 5579 5573 5592 5579 5605 5605 5622 5641 5641 5648 5654 5659
5632 5628 5622 5618 5615 5611 5607 5606 5605 5605 5600 5601 5600 5597 5595 5595 5596 5597 5596 5595 5595 5594 5593 5589 5584 5577 5571 5563 5563 5563 5551 5559 5560 5559 5556 5573 5561 5565 5593 5610 5614 5623 5630 5638 5645
5619 5614 5610 5605 5602 5598 5595 5594 5594 5592 5591 5591 5589 5587 5585 5586 5586 5587 5586 5585 5583 5583 5582 5579 5574 5563 5553 5546 5542 5541 5531 5532 5534 5536 5534 5543 5527 5547 5578 5585 5590 5599 5610 5620 5628
5606 5602 5597 5594 5591 5588 5586 5584 5582 5581 5580 5579 5578 5577 5577 5578 5577 5578 5576 5574 5570 5568 5566 5564 5562 5546 5537 5525 5520 5524 5515 5513 5504 5509 5507 5510 5510 5541 5544 5554 5565 5579 5591 5599 5611
5596 5592 5588 5585 5582 5579 5577 5575 5573 5572 5571 5571 5570 5570 5570 5570 5569 5569 5565 5563 5559 5556 5553 5549 5548 5536 5521 5515 5505 5508 5505 5504 5495 5496 5488 5493 5498 5513 5519 5532 5548 5561 5570 5580 5592
5591 5586 5581 5577 5574 5572 5570 5568 5566 5565 5564 5563 5564 5565 5563 5563 5562 5559 5556 5553 5549 5543 5537 5534 5534 5523 5516 5510 5503 5499 5502 5500 5497 5490 5485 5483 5482 5485 5501 5514 5522 5530 5544 5561 5566
5584 5580 5576 5572 5569 5567 5564 5562 5560 5558 5558 5558 5557 5557 5555 5554 5553 5550 5546 5542 5538 5533 5525 5518 5516 5515 5506 5503 5500 5502 5499 5494 5491 5487 5481 5474 5471 5481 5490 5502 5505 5510 5525 5539 5555
5581 5576 5571 5567 5565 5563 5561 5558 5556 5554 5552 5552 5551 5550 5548 5546 5544 5541 5537 5532 5528 5521 5515 5506 5502 5497 5500 5498 5497 5495 5493 5490 5485 5481 5477 5469 5463 5481 5488 5491 5492 5495 5501 5512 5531
5579 5573 5568 5564 5561 5559 5556 5554 5553 5550 5548 5547 5544 5543 5541 5539 5535 5533 5529 5524 5519 5513 5506 5500 5492 5485 5489 5494 5490 5487 5489 5485 5479 5476 5476 5466 5465 5476 5473 5474 5483 5487 5490 5503 5514
5578 5573 5566 5561 5558 5555 5553 5550 5547 5545 5543 5541 5540 5537 5534 5532 5527 5523 5521 5516 5509 5505 5500 5493 5487 5483 5480 5485 5482 5481 5483 5481 5476 5475 5469 5466 5459 5471 5463 5463 5474 5481 5485 5492 5504
5575 5570 5564 5561 5555 5550 5547 5546 5544 5542 5539 5534 5535 5530 5527 5525 5521 5519 5514 5508 5503 5497 5492 5485 5480 5478 5476 5477 5476 5475 5475 5475 5473 5471 5463 5458 5454 5452 5453 5455 5465 5473 5479 5485 5493
5572 5568 5564 5558 5552 5548 5545 5541 5538 5537 5534 5532 5526 5524 5520 5516 5511 5509 5506 5501 5496 5490 5486 5479 5474 5469 5465 5470 5467 5468 5469 5466 5466 5462 5456 5455 5452 5449 5450 5452 5458 5464 5471 5479 5485
5569 5565 5561 5557 5551 5547 5542 5538 5534 5530 5531 5523 5519 5514 5513 5508 5504 5499 5496 5491 5487 5480 5475 5471 5466 5461 5454 5460 5456 5460 5463 5460 5459 5456 5453 5452 5449 5448 5448 5449 5453 5460 5466 5472 5479